Cedar Creek Reservoir Weather Center

Moon Phase Calendar



Cedar Creek Reservoir Water Level
Online Cameras

 


      

Current Conditions in Russellville
7/18/2024 5:54:17 AM

72°F
Feels Like 73
Clear
Humidity
96%
Pressure
30"
Wind
3 mph (NW)
Dew Point
71°F
UV Index
0/10 (Low)
Visibility
6 mi

Hourly Forecast

Date & Time Thu, Jul 18
5:00 AM
Thu, Jul 18
6:00 AM
Thu, Jul 18
7:00 AM
Thu, Jul 18
8:00 AM
Thu, Jul 18
9:00 AM
Thu, Jul 18
10:00 AM
Thu, Jul 18
11:00 AM
Thu, Jul 18
12:00 PM
Thu, Jul 18
1:00 PM
Thu, Jul 18
2:00 PM
Thu, Jul 18
3:00 PM
Thu, Jul 18
4:00 PM
Thu, Jul 18
5:00 PM
Thu, Jul 18
6:00 PM
Thu, Jul 18
7:00 PM
Thu, Jul 18
8:00 PM
Thu, Jul 18
9:00 PM
Thu, Jul 18
10:00 PM
Thu, Jul 18
11:00 PM
Fri, Jul 19
12:00 AM
Fri, Jul 19
1:00 AM
Fri, Jul 19
2:00 AM
Fri, Jul 19
3:00 AM
Fri, Jul 19
4:00 AM
Fri, Jul 19
5:00 AM
Fri, Jul 19
6:00 AM
Fri, Jul 19
7:00 AM
Fri, Jul 19
8:00 AM
Fri, Jul 19
9:00 AM
Fri, Jul 19
10:00 AM
Fri, Jul 19
11:00 AM
Fri, Jul 19
12:00 PM
Fri, Jul 19
1:00 PM
Fri, Jul 19
2:00 PM
Fri, Jul 19
3:00 PM
Fri, Jul 19
4:00 PM
Fri, Jul 19
5:00 PM
Fri, Jul 19
6:00 PM
Fri, Jul 19
7:00 PM
Fri, Jul 19
8:00 PM
Fri, Jul 19
9:00 PM
Fri, Jul 19
10:00 PM
Fri, Jul 19
11:00 PM
Sat, Jul 20
12:00 AM
Sat, Jul 20
1:00 AM
Sat, Jul 20
2:00 AM
Sat, Jul 20
3:00 AM
Sat, Jul 20
4:00 AM
Condition
Clear

Clear

Clear

Clouds

Clouds

Clouds

Clouds

Clouds

Clouds

Clouds

Clouds

Clouds

Rain

Clouds

Clouds

Rain

Rain

Clouds

Clouds

Clouds

Rain

Rain

Rain

Rain

Clouds

Rain

Rain

Rain

Rain

Clouds

Rain

Clouds

Rain

Rain

Rain

Rain

Rain

Rain

Rain

Clouds

Clouds

Clouds

Clouds

Clouds

Clouds

Clouds

Clouds

Clouds
Temperature 71°F72°F71°F72°F74°F79°F82°F83°F84°F86°F88°F87°F85°F84°F81°F75°F72°F71°F71°F70°F69°F68°F67°F66°F66°F66°F65°F66°F68°F71°F71°F71°F71°F72°F74°F77°F77°F77°F75°F71°F69°F68°F68°F68°F67°F67°F67°F67°F
Feels Like 72°F73°F73°F73°F75°F79°F85°F86°F88°F89°F90°F89°F88°F87°F84°F76°F73°F72°F71°F71°F70°F69°F68°F67°F66°F66°F66°F67°F68°F71°F71°F72°F72°F73°F75°F78°F77°F78°F76°F72°F70°F69°F69°F69°F68°F68°F68°F68°F
Cloudiness 7%7%7%23%32%49%71%76%80%100%100%100%100%100%100%55%77%82%87%89%90%100%100%100%100%100%100%100%100%100%100%100%100%100%100%100%100%99%99%100%98%99%79%78%75%11%12%13%
Visibility 6 mi6 mi6 mi6 mi6 mi6 mi6 mi6 mi6 mi6 mi6 mi6 mi6 mi6 mi6 mi4 mi6 mi6 mi6 mi6 mi6 mi6 mi6 mi6 mi6 mi6 mi6 mi6 mi6 mi6 mi6 mi6 mi6 mi6 mi6 mi6 mi6 mi6 mi6 mi6 mi6 mi6 mi6 mi6 mi6 mi6 mi6 mi6 mi
Precipitation 20%17%12%0%0%0%0%0%0%0%0%0%27%13%15%100%94%84%69%59%63%98%100%100%80%100%100%87%71%63%67%63%64%63%58%70%89%89%89%21%0%0%0%0%0%0%0%0%
Humidity 95%96%95%92%86%72%62%61%58%54%49%50%55%59%66%80%86%86%87%86%86%89%91%91%90%91%93%93%90%82%84%83%85%86%80%73%75%73%80%90%95%97%97%97%98%98%98%98%
Dew Point 70°F71°F70°F69°F69°F69°F68°F68°F68°F67°F66°F66°F67°F68°F68°F68°F68°F67°F66°F65°F65°F65°F64°F64°F63°F63°F63°F64°F65°F65°F65°F66°F67°F67°F67°F68°F68°F68°F68°F68°F68°F67°F67°F67°F66°F66°F66°F66°F
Pressure 30"30"30"30.03"30.03"30.03"30.03"30.03"30.03"30"30"30"30"29.97"29.97"30"30"30"30.03"30.03"30.03"30.03"30.03"30.03"30.03"30.03"30.06"30.06"30.06"30.09"30.09"30.09"30.09"30.06"30.06"30.06"30.03"30.03"30.03"30.06"30.06"30.06"30.06"30.06"30.03"30.06"30.06"30.06"
Wind Speed 3.5 mph3 mph2.4 mph2.7 mph3.4 mph3.7 mph5.8 mph7.5 mph7.6 mph7 mph6.9 mph7.4 mph8.6 mph7.6 mph8.5 mph6.1 mph6.4 mph6.3 mph6.3 mph5.4 mph5.7 mph4.4 mph4.3 mph5.6 mph4.1 mph3.1 mph3 mph3.6 mph3.5 mph3.7 mph2.6 mph0.9 mph0.5 mph1.2 mph1.4 mph1.3 mph0.6 mph1.5 mph3.3 mph3.5 mph3.4 mph3.1 mph2.5 mph2.6 mph3.4 mph3 mph3.1 mph3.2 mph
Wind
Direction
314°
NW
318°
NW
292°
WNW
302°
WNW
338°
NNW
345°
NNW
340°
NNW
354°
N
357°
N

N
360°
N

N

N
14°
NNE
23°
NNE
39°
NE
32°
NNE
38°
NE
35°
NE
50°
NE
40°
NE
47°
NE
27°
NNE
29°
NNE
40°
NE
45°
NE
72°
ENE
86°
E
86°
E
74°
ENE
78°
ENE
105°
ESE
55°
NE
10°
N
28°
NNE
40°
NE
135°
SE
67°
ENE
119°
ESE
115°
ESE
135°
SE
134°
SE
140°
SE
148°
SSE
169°
S
184°
S
165°
SSE
146°
SE

Daily Forecast

Date High Low Precip. Humidity
Today
Jul 18

Rain
88 °F
70 °F
100%
61%
Friday
Jul 19

Rain
77 °F
65 °F
100%
83%
Saturday
Jul 20

Rain
86 °F
66 °F
100%
57%
Sunday
Jul 21

Rain
87 °F
68 °F
100%
52%
Monday
Jul 22

Rain
81 °F
70 °F
100%
79%
Tuesday
Jul 23

Rain
88 °F
70 °F
100%
70%
Wednesday
Jul 24

Rain
83 °F
70 °F
100%
80%
Thursday
Jul 25

Rain
72 °F
69 °F
100%
98%
Friday
Jul 26

Rain
71 °F
69 °F
100%
98%
Saturday
Jul 27

Rain
78 °F
69 °F
100%
84%
Sunday
Jul 28

Rain
83 °F
69 °F
100%
77%
Monday
Jul 29

Rain
87 °F
70 °F
37%
53%
Tuesday
Jul 30

Rain
79 °F
70 °F
47%
81%
Wednesday
Jul 31

Rain
84 °F
71 °F
100%
81%
Thursday
Aug 1

Rain
85 °F
71 °F
96%
91%
Friday
Aug 2

Rain
80 °F
71 °F
100%
75%

Temperature 8-14 Day Outlook



Precipitation 8-14 Day Outlook






About Us
Contact Us
Site Map
Search Site
Advertise With Us
   
CedarCreek.LakesOnline.com
THE CEDAR CREEK RESERVOIR WEBSITE

Copyright 2024, Lakes Online
Privacy    |    Legal